[TLELIST] Archives

 

[TLELIST] Current TLEs

March 8th 2023 PST

HST 1 20580U 90037B 23066.72501111 .00009569 00000-0 52885-3 0 9999 2 20580 28.4685 222.6531 0002732 14.3402 6.8126 15.12228220606087 ISS (ZARYA) 1 25544U 98067A 23067.36115392 .00018677 00000-0 34141-3 0 9993 2 25544 51.6405 107.9846 0006609 52.1744 58.5396 15.49396926386155 CXO 1 25867U 99040B 23067.48244204 .00001102 00000-0 00000-0 0 9990 2 25867 38.8771 209.3042 9022657 252.4083 0.4903 0.37818766 12790 ...Continue Reading

[TLELIST] Current TLEs

March 8th 2023 PST

HST 1 20580U 90037B 23066.72501111 .00009569 00000-0 52885-3 0 9999 2 20580 28.4685 222.6531 0002732 14.3402 6.8126 15.12228220606087 ISS (ZARYA) 1 25544U 98067A 23067.36115392 .00018677 00000-0 34141-3 0 9993 2 25544 51.6405 107.9846 0006609 52.1744 58.5396 15.49396926386155 CXO 1 25867U 99040B 23067.48244204 .00001102 00000-0 00000-0 0 9990 2 25867 38.8771 209.3042 9022657 252.4083 0.4903 0.37818766 12790 ...Continue Reading

[TLELIST] Current TLEs

March 7th 2023 PST

HST 1 20580U 90037B 23065.88630472 .00008407 00000-0 46367-3 0 9996 2 20580 28.4683 228.2253 0002659 5.4328 120.7360 15.12212224605952 ISS (ZARYA) 1 25544U 98067A 23066.19942997 -.00133287 00000-0 -24244-2 0 9991 2 25544 51.6388 113.7342 0006616 51.1967 55.4308 15.49299426385970 CXO 1 25867U 99040B 23067.48244204 .00001102 00000-0 00000-0 0 9990 2 25867 38.8771 209.3042 9022657 252.4083 0.4903 0.37818766 12790 ...Continue Reading

[TLELIST] Current TLEs

March 7th 2023 PST

HST 1 20580U 90037B 23065.88630472 .00008407 00000-0 46367-3 0 9996 2 20580 28.4683 228.2253 0002659 5.4328 120.7360 15.12212224605952 ISS (ZARYA) 1 25544U 98067A 23066.19942997 -.00133287 00000-0 -24244-2 0 9991 2 25544 51.6388 113.7342 0006616 51.1967 55.4308 15.49299426385970 CXO 1 25867U 99040B 23067.48244204 .00001102 00000-0 00000-0 0 9990 2 25867 38.8771 209.3042 9022657 252.4083 0.4903 0.37818766 12790 ...Continue Reading

[TLELIST] Current TLEs

March 6th 2023 PST

HST 1 20580U 90037B 23065.16735794 .00008364 00000-0 46138-3 0 9998 2 20580 28.4683 233.0017 0002595 357.7220 166.7646 15.12200596606112 ISS (ZARYA) 1 25544U 98067A 23065.22572131 .00022590 00000-0 40620-3 0 9992 2 25544 51.6411 118.5510 0005929 61.4968 10.1401 15.49738329385824 CXO 1 25867U 99040B 23067.48244204 .00001102 00000-0 00000-0 0 9990 2 25867 38.8771 209.3042 9022657 252.4083 0.4903 0.37818766 12790 ...Continue Reading

[TLELIST] Current TLEs

March 6th 2023 PST

HST 1 20580U 90037B 23065.16735794 .00008364 00000-0 46138-3 0 9998 2 20580 28.4683 233.0017 0002595 357.7220 166.7646 15.12200596606112 ISS (ZARYA) 1 25544U 98067A 23065.22572131 .00022590 00000-0 40620-3 0 9992 2 25544 51.6411 118.5510 0005929 61.4968 10.1401 15.49738329385824 CXO 1 25867U 99040B 23067.48244204 .00001102 00000-0 00000-0 0 9990 2 25867 38.8771 209.3042 9022657 252.4083 0.4903 0.37818766 12790 ...Continue Reading

[TLELIST] Current TLEs

March 5th 2023 PST

HST 1 20580U 90037B 23063.90486382 .00007270 00000-0 39996-3 0 9993 2 20580 28.4683 241.3887 0002500 344.1557 133.8005 15.12178946605912 ISS (ZARYA) 1 25544U 98067A 23064.32835543 .00022325 00000-0 40214-3 0 9996 2 25544 51.6409 122.9953 0005817 57.7649 44.1757 15.49696561385687 CXO 1 25867U 99040B 23064.83748970 .00001040 00000-0 00000-0 0 9996 2 25867 38.9307 209.6482 9023415 252.1369 0.4261 0.37812614 12797 ...Continue Reading

[TLELIST] Current TLEs

March 4th 2023 PST

HST 1 20580U 90037B 23062.83126970 .00006422 00000-0 35228-3 0 9990 2 20580 28.4684 248.5203 0002430 332.6479 49.2452 15.12162790605490 ISS (ZARYA) 1 25544U 98067A 23063.49497122 .00021946 00000-0 39601-3 0 9996 2 25544 51.6412 127.1216 0005923 54.3301 75.2192 15.49657509385559 CXO 1 25867U 99040B 23064.83748970 .00001040 00000-0 00000-0 0 9996 2 25867 38.9307 209.6482 9023415 252.1369 0.4261 0.37812614 12797 ...Continue Reading

[TLELIST] Current TLEs

March 3rd 2023 PST

HST 1 20580U 90037B 23061.78404521 .00005363 00000-0 29263-3 0 9999 2 20580 28.4685 255.4768 0002366 320.9877 108.7367 15.12148640605331 ISS (ZARYA) 1 25544U 98067A 23062.53026366 .00019618 00000-0 35558-3 0 9998 2 25544 51.6396 131.9005 0006043 47.9989 96.1739 15.49607045385406 CXO 1 25867U 99040B 23064.83748970 .00001040 00000-0 00000+0 0 9995 2 25867 38.9307 209.6482 9023415 252.1369 0.4261 0.37812614 23946 ...Continue Reading

[TLELIST] Current TLEs

March 3rd 2023 PST

HST 1 20580U 90037B 23061.78404521 .00005363 00000-0 29263-3 0 9999 2 20580 28.4685 255.4768 0002366 320.9877 108.7367 15.12148640605331 ISS (ZARYA) 1 25544U 98067A 23062.53026366 .00019618 00000-0 35558-3 0 9998 2 25544 51.6396 131.9005 0006043 47.9989 96.1739 15.49607045385406 CXO 1 25867U 99040B 23064.83748970 .00001040 00000-0 00000+0 0 9995 2 25867 38.9307 209.6482 9023415 252.1369 0.4261 0.37812614 23946 ...Continue Reading
  • This mailing list is a public mailing list - anyone may join or leave, at any time.
  • This mailing list is announce-only.

International Space Station (ISS) / Hubble Space Telescope (HST) / Chandra X-Ray Observatory Orbital Data via EMAIL

Privacy Policy:

Private list